Regional Weather Roundup
Issued by NWS State College, PA

Home | Current Version | Previous Version | Graphics & Text | Print | Product List | Glossary On
Versions: 1 2 3 4 5 6 7 8 9 10 11 12 13 14 15 16 17 18 19 20 21 22 23 24 25 26 27 28 29 30 31 32 33 34 35 36 37 38 39 40 41 42 43 44 45 46 47 48 49 50
000
ASUS41 KCTP 260903
RWRCTP

REGIONAL WEATHER ROUNDUP
NATIONAL WEATHER SERVICE STATE COLLEGE PA
500 AM EDT MON SEP 26 2016

Note: "fair" indicates few or no clouds below 12,000 feet with no
significant weather and/or obstructions to visibility.

* = STATION THAT DOES NOT REPORT PRECIPITATION /E.G. RAIN...SNOW...ETC/
    THUNDER OR FOG.

PAZ002>004-007>009-013>016-020>023-029>032-261000-
WESTERN PENNSYLVANIA

CITY           SKY/WX    TMP DP  RH WIND       PRES   REMARKS
ERIE           CLEAR     59  45  59 S13       29.97F
MEADVILLE      PTCLDY    54  44  69 VRB3      30.01F
FRANKLIN*        N/A     50  43  76 SE6       30.04F
NEW CASTLE     FAIR      50  48  93 CALM      30.02F
BEAVER COUNTY  NOT AVBL
BUTLER*        CLEAR     48  45  87 NE3       30.05F
PITTSBURGH INT PTCLDY    55  50  83 CALM      30.01F
PITTSBURGH     CLEAR     56  47  71 SE3       30.02F
INDIANA*       CLEAR     59  50  72 SE5G13    30.08S
LATROBE        CLEAR     54  48  82 CALM      30.05S
WASHINGTON CO* CLEAR     48  46  93 CALM      30.03S
$$

PAZ004>006-010>012-017>019-024>028-033>037-041-042-045-046-049>053-261000-
CENTRAL PENNSYLVANIA

CITY           SKY/WX    TMP DP  RH WIND       PRES   REMARKS
BRADFORD       CLOUDY    50  44  80 SE7       30.06F
DUBOIS         CLEAR     52  43  71 SE7       30.06F
CLEARFIELD     CLEAR     45  44  97 NE7       30.10F
JOHNSTOWN      CLEAR     53  51  93 SE7       30.09S
ALTOONA        CLOUDY    51  47  86 CALM      30.12S
STATE COLLEGE  CLEAR     45  43  95 CALM      30.12S
WILLIAMSPORT   CLEAR     47  43  86 N3        30.13S
SELINSGROVE    PTCLDY    44  44 100 CALM      30.15S
FT INDIANTOWN  CLEAR     47  44  90 CALM      30.16R
CAPITAL CITY   MOCLDY    53  49  86 CALM      30.15S
HARRISBURG     MOCLDY    52  49  89 E3        30.15S
YORK           MOCLDY    52  51  97 CALM      30.15S
$$

PAZ038>040-043-044-047-048-054-055-060>062-067>071-261000-
EASTERN PENNSYLVANIA

CITY           SKY/WX    TMP DP  RH WIND       PRES   REMARKS
SCRANTON       CLEAR     47  38  71 NE7       30.15F
MOUNT POCONO   CLEAR     45  34  65 E7        30.17S
ALLENTOWN      CLEAR     43  39  86 CALM      30.17S
QUAKERTOWN*    SUNNY     41  39  93 CALM      30.18S
READING        CLEAR     48  44  86 CALM      30.16S
LANCASTER      CLEAR     48  47  96 E6        30.15S
COATESVILLE    SUNNY     50  45  81 CALM      30.17S
POTTSTOWN      CLEAR     45  43  93 CALM      30.19R
BLUE BELL      CLEAR     43  43 100 CALM      30.16F
DOYLESTOWN     CLEAR     48  43  82 CALM      30.16S
WILLOW GROVE   NOT AVBL
NORTH PHILA    CLEAR     50  47  89 CALM      30.18S
PHILADELPHIA   PTCLDY    54  49  83 CALM      30.17S
$$



USA.gov is the U.S. government's official web portal to all federal, state and local government web resources and services.